TimeEST,TemperatureF,Dew PointF,Humidity,Sea Level PressureIn,VisibilityMPH,Wind Direction,Wind SpeedMPH,Gust SpeedMPH,PrecipitationIn,Events,Conditions,WindDirDegrees,DateUTC
12:52 AM,37.0,23.0,57,30.34,10.0,Calm,Calm,-,N/A,,Partly Cloudy,0,2013-11-15 05:52:00
1:52 AM,33.1,24.1,70,30.33,10.0,Calm,Calm,-,N/A,,Partly Cloudy,0,2013-11-15 06:52:00
2:52 AM,34.0,25.0,70,30.34,10.0,Calm,Calm,-,N/A,,Partly Cloudy,0,2013-11-15 07:52:00
3:52 AM,34.0,25.0,70,30.32,10.0,SSE,3.5,-,N/A,,Overcast,150,2013-11-15 08:52:00
4:52 AM,35.1,26.1,70,30.32,10.0,Calm,Calm,-,N/A,,Overcast,0,2013-11-15 09:52:00
5:52 AM,36.0,27.0,70,30.32,10.0,Calm,Calm,-,N/A,,Mostly Cloudy,0,2013-11-15 10:52:00
6:52 AM,35.1,28.9,78,30.34,10.0,SSE,3.5,-,N/A,,Overcast,150,2013-11-15 11:52:00
7:52 AM,39.0,28.9,67,30.34,10.0,SSE,3.5,-,N/A,,Overcast,160,2013-11-15 12:52:00
8:45 AM,44.6,32.0,61,30.35,10.0,Calm,Calm,-,N/A,,Overcast,0,2013-11-15 13:45:00
8:52 AM,44.1,32.0,63,30.36,10.0,WNW,3.5,-,N/A,,Overcast,290,2013-11-15 13:52:00
9:52 AM,48.0,32.0,54,30.36,10.0,Calm,Calm,-,N/A,,Overcast,0,2013-11-15 14:52:00
10:23 AM,51.8,35.6,54,30.35,10.0,South,4.6,-,N/A,,Scattered Clouds,180,2013-11-15 15:23:00
10:52 AM,52.0,36.0,54,30.35,10.0,Calm,Calm,-,N/A,,Overcast,0,2013-11-15 15:52:00
11:16 AM,53.6,35.6,51,30.33,10.0,SE,3.5,-,N/A,,Mostly Cloudy,130,2013-11-15 16:16:00
11:52 AM,55.9,35.1,45,30.31,10.0,SSE,4.6,-,N/A,,Overcast,160,2013-11-15 16:52:00
12:52 PM,57.0,36.0,45,30.28,10.0,SSE,4.6,-,N/A,,Mostly Cloudy,150,2013-11-15 17:52:00
1:52 PM,59.0,39.0,48,30.24,10.0,SSE,6.9,-,N/A,,Overcast,150,2013-11-15 18:52:00
2:52 PM,59.0,41.0,51,30.22,10.0,South,4.6,-,N/A,,Overcast,180,2013-11-15 19:52:00
3:52 PM,60.1,43.0,53,30.22,10.0,Calm,Calm,-,N/A,,Overcast,0,2013-11-15 20:52:00
4:52 PM,60.1,46.9,62,30.21,10.0,SE,5.8,-,N/A,,Overcast,130,2013-11-15 21:52:00
5:52 PM,59.0,46.0,62,30.21,10.0,Calm,Calm,-,N/A,,Overcast,0,2013-11-15 22:52:00
6:52 PM,57.9,46.0,65,30.22,10.0,ESE,6.9,-,N/A,,Overcast,110,2013-11-15 23:52:00
7:52 PM,57.0,46.0,67,30.21,10.0,SE,4.6,-,N/A,,Overcast,130,2013-11-16 00:52:00
8:52 PM,54.0,48.0,80,30.23,10.0,WNW,5.8,-,0.00,,Overcast,300,2013-11-16 01:52:00
9:37 PM,50.0,46.4,87,30.25,5.0,NNW,5.8,-,0.04,Rain,Light Rain,330,2013-11-16 02:37:00
9:50 PM,48.9,46.9,93,30.25,3.0,North,6.9,-,0.10,Rain,Heavy Rain,350,2013-11-16 02:50:00
10:13 PM,48.2,46.4,93,30.26,5.0,NNW,4.6,-,0.03,Rain,Light Rain,330,2013-11-16 03:13:00
10:22 PM,48.2,46.4,93,30.25,2.5,NNW,4.6,-,0.07,Rain,Heavy Rain,330,2013-11-16 03:22:00
10:48 PM,48.2,48.2,100,30.23,6.0,Variable,4.6,-,0.11,Rain,Light Rain,0,2013-11-16 03:48:00
10:52 PM,48.9,48.0,97,30.23,7.0,North,5.8,-,0.11,Rain,Light Rain,10,2013-11-16 03:52:00
11:52 PM,50.0,48.9,96,30.23,8.0,NW,3.5,-,0.00,,Overcast,310,2013-11-16 04:52:00